Terminal Aerodrome Forecast
Issued by NWS Denver/Boulder, CO

Home | Current Version | Previous Version | Text Only | Print | Product List | Glossary On
Versions: 1 2 3 4 5 6 7 8 9 10 11 12 13 14 15 16 17 18 19 20 21 22 23 24 25 26 27 28 29 30 31 32 33 34 35 36 37 38 39 40 41 42 43 44 45 46 47 48 49 50
000
FTUS45 KBOU 271133
TAFDEN
TAF
KDEN 271133Z 2712/2818 29005KT P6SM FEW010 SCT200
      TEMPO 2713/2716 SCT008 BKN018
     FM271600 VRB05KT P6SM SCT025 BKN040
     FM271900 10010KT P6SM BKN060
      TEMPO 2722/2802 VRB20G35KT 5SM +TSRA BKN040CB
     FM280300 17011KT P6SM FEW040 BKN070
     FM280500 20010KT P6SM FEW070 SCT120 BKN200
     FM281200 29005KT P6SM SCT008 SCT120
     FM281500 VRB05KT P6SM FEW020 SCT070=

USA.gov is the U.S. government's official web portal to all federal, state and local government web resources and services.